QPF
0.02 0.03 0.02 0.02 0.02 0.01 0.01 0.01 0.00 0.00 0.00 0.00 0.00 0.00 0.01 0.02 0.01 0.01 0.01 0.01 0.01 0.02 0.01 0.01 0.01 0.01 0.01 0.01 0.01 0.01 0.02 0.02 0.02 0.02 0.03 0.02 0.01 0.01 0.01 0.01 0.01 0.01 0.01
0.01 0.02 0.02 0.01 0.01 0.01 0.01 0.01 0.00 0.00 0.00 0.00 0.00 0.00 0.00 0.01 0.01 0.00 0.01 0.00 0.00 0.01 0.01 0.01 0.01 0.01 0.01 0.02 0.01 0.01 0.02 0.02 0.02 0.01 0.01 0.01 0.00 0.01 0.01 0.01 0.01 0.01 0.01
0.01 0.02 0.01 0.02 0.01 0.01 0.01 0.01 0.00 0.00 0.00 0.00 0.00 0.00 0.00 0.00 0.01 0.01 0.01 0.01 0.01 0.01 0.01 0.01 0.01 0.01 0.01 0.01 0.01 0.01 0.01 0.01 0.01 0.01 0.01 0.01 0.01 0.01 0.01 0.01 0.01 0.01 0.01
0.00 0.01 0.01 0.01 0.01 0.01 0.01 0.01 0.01 0.01 0.00 0.00 0.00 0.00 0.00 0.00 0.00 0.01 0.00 0.00 0.01 0.01 0.01 0.01 0.01 0.01 0.01 0.01 0.01 0.01 0.01 0.01 0.01 0.01 0.01 0.01 0.01 0.01 0.01 0.01 0.01 0.01 0.01
0.00 0.01 0.01 0.01 0.02 0.02 0.01 0.02 0.02 0.01 0.01 0.01 0.00 0.01 0.01 0.01 0.00 0.00 0.00 0.00 0.01 0.01 0.01 0.01 0.01 0.01 0.01 0.01 0.01 0.01 0.01 0.01 0.01 0.01 0.01 0.01 0.01 0.01 0.01 0.01 0.01 0.01 0.01
0.01 0.02 0.03 0.02 0.02 0.02 0.02 0.02 0.02 0.02 0.02 0.01 0.01 0.01 0.01 0.01 0.02 0.01 0.01 0.01 0.00 0.00 0.00 0.00 0.00 0.00 0.01 0.01 0.01 0.01 0.00 0.00 0.01 0.01 0.01 0.01 0.01 0.01 0.01 0.01 0.01 0.01 0.01
0.02 0.04 0.04 0.03 0.03 0.03 0.04 0.03 0.02 0.01 0.01 0.01 0.01 0.00 0.00 0.01 0.01 0.01 0.01 0.01 0.01 0.00 0.00 0.00 0.00 0.01 0.01 0.01 0.01 0.01 0.00 0.00 0.01 0.01 0.01 0.01 0.01 0.01 0.01 0.01 0.01 0.01 0.01
0.02 0.03 0.03 0.03 0.04 0.04 0.05 0.04 0.03 0.02 0.01 0.01 0.00 0.00 0.00 0.01 0.01 0.02 0.01 0.01 0.00 0.00 0.00 0.00 0.00 0.01 0.01 0.01 0.01 0.00 0.00 0.00 0.00 0.00 0.01 0.01 0.02 0.02 0.02 0.01 0.00 0.00 0.00
0.02 0.03 0.03 0.04 0.04 0.06 0.07 0.06 0.05 0.03 0.02 0.01 0.01 0.01 0.01 0.01 0.01 0.01 0.02 0.01 0.01 0.01 0.01 0.01 0.01 0.01 0.01 0.01 0.01 0.00 0.00 0.00 0.00 0.00 0.00 0.01 0.02 0.02 0.01 0.02 0.01 0.00 0.00
0.01 0.01 0.01 0.02 0.04 0.06 0.09 0.08 0.06 0.04 0.03 0.03 0.02 0.01 0.02 0.02 0.01 0.01 0.01 0.01 0.01 0.01 0.01 0.01 0.01 0.01 0.01 0.01 0.01 0.00 0.00 0.00 0.00 0.00 0.00 0.00 0.01 0.02 0.02 0.01 0.01 0.01 0.01
0.00 0.01 0.01 0.01 0.02 0.03 0.05 0.06 0.07 0.06 0.05 0.04 0.03 0.02 0.02 0.02 0.01 0.01 0.01 0.01 0.01 0.01 0.01 0.01 0.01 0.01 0.01 0.01 0.00 0.00 0.00 0.00 0.00 0.00 0.00 0.00 0.00 0.01 0.01 0.02 0.02 0.01 0.01
0.01 0.01 0.01 0.00 0.01 0.01 0.02 0.04 0.06 0.06 0.06 0.04 0.04 0.03 0.03 0.02 0.01 0.01 0.01 0.01 0.01 0.01 0.01 0.01 0.01 0.01 0.01 0.01 0.00 0.00 0.00 0.01 0.00 0.00 0.00 0.00 0.00 0.00 0.00 0.00 0.01 0.01 0.01
0.01 0.01 0.01 0.01 0.00 0.00 0.01 0.02 0.06 0.07 0.07 0.06 0.04 0.03 0.03 0.03 0.02 0.02 0.01 0.01 0.01 0.01 0.01 0.01 0.01 0.02 0.01 0.01 0.00 0.00 0.01 0.01 0.00 0.00 0.00 0.00 0.00 0.00 0.00 0.00 0.00 0.00 0.01
0.01 0.01 0.01 0.01 0.00 0.00 0.01 0.01 0.03 0.05 0.05 0.06 0.04 0.02 0.02 0.03 0.03 0.03 0.02 0.01 0.01 0.01 0.01 0.01 0.01 0.02 0.01 0.01 0.01 0.01 0.00 0.00 0.00 0.00 0.00 0.00 0.00 0.00 0.00 0.00 0.01 0.01 0.00
0.01 0.01 0.00 0.00 0.00 0.00 0.00 0.01 0.01 0.03 0.04 0.05 0.05 0.04 0.03 0.02 0.02 0.02 0.02 0.02 0.02 0.02 0.01 0.01 0.01 0.01 0.01 0.01 0.01 0.01 0.01 0.00 0.00 0.00 0.00 0.00 0.00 0.00 0.00 0.00 0.01 0.01 0.01
0.01 0.01 0.01 0.01 0.01 0.00 0.00 0.01 0.01 0.02 0.03 0.05 0.06 0.06 0.04 0.04 0.03 0.02 0.02 0.02 0.02 0.01 0.01 0.01 0.01 0.01 0.01 0.02 0.02 0.02 0.02 0.01 0.01 0.01 0.01 0.01 0.01 0.01 0.01 0.01 0.01 0.01 0.00
0.01 0.01 0.01 0.01 0.01 0.01 0.01 0.00 0.01 0.01 0.02 0.03 0.05 0.06 0.04 0.03 0.03 0.03 0.02 0.02 0.02 0.02 0.02 0.02 0.01 0.02 0.02 0.02 0.02 0.02 0.02 0.02 0.02 0.01 0.02 0.02 0.01 0.01 0.01 0.01 0.01 0.01 0.00
0.02 0.01 0.01 0.01 0.01 0.01 0.01 0.01 0.01 0.01 0.02 0.03 0.05 0.05 0.05 0.05 0.03 0.03 0.03 0.03 0.02 0.02 0.02 0.02 0.02 0.02 0.02 0.02 0.02 0.02 0.02 0.02 0.02 0.02 0.02 0.02 0.02 0.02 0.02 0.01 0.01 0.01 0.01
0.02 0.01 0.01 0.01 0.01 0.01 0.01 0.02 0.01 0.01 0.01 0.02 0.03 0.04 0.04 0.05 0.06 0.05 0.03 0.02 0.02 0.02 0.02 0.02 0.02 0.03 0.02 0.02 0.02 0.02 0.02 0.02 0.02 0.02 0.02 0.02 0.02 0.02 0.02 0.02 0.02 0.01 0.01
0.01 0.01 0.01 0.01 0.01 0.01 0.01 0.01 0.02 0.02 0.02 0.02 0.02 0.02 0.03 0.04 0.05 0.06 0.05 0.04 0.04 0.03 0.02 0.02 0.02 0.03 0.03 0.03 0.03 0.03 0.03 0.03 0.03 0.03 0.03 0.02 0.02 0.01 0.01 0.01 0.01 0.02 0.02
0.01 0.01 0.01 0.00 0.00 0.00 0.00 0.01 0.02 0.02 0.02 0.03 0.03 0.03 0.03 0.03 0.03 0.04 0.05 0.04 0.04 0.04 0.03 0.02 0.02 0.02 0.01 0.01 0.01 0.02 0.02 0.03 0.03 0.04 0.04 0.03 0.03 0.02 0.02 0.02 0.02 0.02 0.01
0.01 0.01 0.01 0.00 0.00 0.00 0.00 0.01 0.01 0.01 0.02 0.02 0.02 0.03 0.03 0.02 0.02 0.02 0.03 0.03 0.03 0.03 0.03 0.03 0.02 0.02 0.01 0.01 0.01 0.01 0.01 0.02 0.02 0.02 0.02 0.02 0.02 0.02 0.02 0.02 0.02 0.01 0.01
0.01 0.01 0.01 0.01 0.01 0.01 0.01 0.01 0.01 0.01 0.02 0.02 0.02 0.02 0.02 0.02 0.02 0.02 0.02 0.02 0.02 0.02 0.02 0.02 0.02 0.01 0.01 0.01 0.01 0.01 0.01 0.02 0.02 0.02 0.02 0.02 0.02 0.02 0.01 0.01 0.01 0.01 0.01
0.01 0.01 0.01 0.01 0.01 0.01 0.01 0.02 0.02 0.02 0.02 0.02 0.02 0.01 0.01 0.02 0.02 0.02 0.02 0.01 0.02 0.02 0.01 0.01 0.01 0.02 0.01 0.01 0.01 0.01 0.01 0.01 0.01 0.01 0.02 0.02 0.02 0.01 0.01 0.01 0.01 0.01 0.01
0.01 0.01 0.01 0.02 0.02 0.02 0.02 0.02 0.02 0.02 0.02 0.02 0.02 0.01 0.01 0.01 0.02 0.03 0.02 0.02 0.01 0.02 0.02 0.01 0.01 0.01 0.01 0.00 0.00 0.00 0.01 0.01 0.01 0.01 0.02 0.02 0.02 0.01 0.01 0.02 0.02 0.01 0.01
0.01 0.02 0.02 0.02 0.02 0.02 0.02 0.02 0.02 0.02 0.02 0.03 0.02 0.01 0.01 0.01 0.01 0.02 0.02 0.02 0.01 0.01 0.01 0.01 0.01 0.01 0.00 0.00 0.00 0.01 0.01 0.01 0.01 0.01 0.02 0.02 0.02 0.01 0.02 0.02 0.02 0.02 0.01
MSLP
1022.56 1022.84 1023.17 1023.51 1023.82 1024.06 1024.25 1024.37 1024.46 1024.52 1024.59 1024.68 1024.78 1024.90 1025.02 1025.13 1025.23 1025.33 1025.41 1025.50 1025.59 1025.70 1025.81 1025.92 1026.02 1026.10 1026.15 1026.18 1026.19 1026.21 1026.25 1026.33 1026.45 1026.61 1026.79 1026.97 1027.12 1027.20 1027.22 1027.15 1027.02 1026.84 1026.65
1022.75 1023.01 1023.31 1023.61 1023.90 1024.14 1024.34 1024.49 1024.60 1024.70 1024.79 1024.88 1024.97 1025.07 1025.17 1025.26 1025.34 1025.42 1025.50 1025.59 1025.69 1025.80 1025.92 1026.04 1026.14 1026.21 1026.26 1026.28 1026.30 1026.32 1026.37 1026.46 1026.60 1026.79 1027.00 1027.21 1027.38 1027.49 1027.52 1027.47 1027.34 1027.16 1026.95
1023.03 1023.28 1023.56 1023.84 1024.11 1024.35 1024.55 1024.71 1024.84 1024.96 1025.05 1025.14 1025.22 1025.28 1025.34 1025.38 1025.43 1025.47 1025.53 1025.60 1025.70 1025.82 1025.95 1026.07 1026.18 1026.26 1026.32 1026.35 1026.37 1026.40 1026.47 1026.58 1026.74 1026.95 1027.19 1027.43 1027.63 1027.77 1027.83 1027.80 1027.69 1027.52 1027.31
1023.37 1023.64 1023.92 1024.19 1024.44 1024.67 1024.87 1025.04 1025.18 1025.30 1025.39 1025.46 1025.51 1025.53 1025.53 1025.52 1025.51 1025.50 1025.52 1025.56 1025.65 1025.76 1025.89 1026.02 1026.14 1026.23 1026.30 1026.34 1026.37 1026.41 1026.49 1026.61 1026.79 1027.02 1027.28 1027.54 1027.77 1027.95 1028.04 1028.05 1027.98 1027.84 1027.65
1023.74 1024.04 1024.33 1024.60 1024.84 1025.06 1025.26 1025.43 1025.58 1025.70 1025.78 1025.83 1025.85 1025.82 1025.77 1025.69 1025.61 1025.55 1025.51 1025.52 1025.57 1025.67 1025.78 1025.91 1026.03 1026.12 1026.19 1026.23 1026.26 1026.31 1026.38 1026.50 1026.68 1026.91 1027.18 1027.46 1027.72 1027.93 1028.08 1028.14 1028.12 1028.03 1027.88
1024.08 1024.43 1024.74 1025.02 1025.26 1025.48 1025.68 1025.85 1026.00 1026.12 1026.21 1026.24 1026.23 1026.16 1026.05 1025.92 1025.78 1025.65 1025.56 1025.52 1025.53 1025.59 1025.68 1025.78 1025.88 1025.95 1026.00 1026.02 1026.04 1026.06 1026.11 1026.21 1026.37 1026.59 1026.86 1027.15 1027.44 1027.69 1027.89 1028.02 1028.07 1028.05 1027.97
1024.34 1024.75 1025.10 1025.39 1025.65 1025.87 1026.08 1026.26 1026.42 1026.55 1026.64 1026.67 1026.64 1026.55 1026.40 1026.22 1026.03 1025.85 1025.70 1025.61 1025.56 1025.57 1025.61 1025.67 1025.72 1025.76 1025.76 1025.74 1025.71 1025.70 1025.71 1025.77 1025.90 1026.09 1026.34 1026.64 1026.94 1027.24 1027.49 1027.69 1027.82 1027.89 1027.89
1024.50 1024.97 1025.36 1025.69 1025.96 1026.21 1026.43 1026.63 1026.81 1026.96 1027.06 1027.10 1027.07 1026.97 1026.80 1026.60 1026.37 1026.15 1025.95 1025.80 1025.71 1025.65 1025.63 1025.62 1025.61 1025.58 1025.52 1025.43 1025.34 1025.26 1025.21 1025.22 1025.31 1025.46 1025.70 1025.98 1026.30 1026.62 1026.93 1027.20 1027.41 1027.56 1027.65
1024.55 1025.08 1025.52 1025.89 1026.19 1026.47 1026.72 1026.95 1027.16 1027.34 1027.46 1027.52 1027.50 1027.40 1027.24 1027.02 1026.78 1026.53 1026.30 1026.10 1025.95 1025.83 1025.74 1025.65 1025.56 1025.44 1025.30 1025.14 1024.97 1024.82 1024.70 1024.65 1024.68 1024.80 1025.00 1025.28 1025.60 1025.95 1026.29 1026.62 1026.90 1027.13 1027.31
1024.48 1025.08 1025.58 1025.99 1026.35 1026.66 1026.95 1027.22 1027.46 1027.66 1027.81 1027.89 1027.89 1027.81 1027.65 1027.44 1027.19 1026.93 1026.68 1026.44 1026.24 1026.06 1025.90 1025.74 1025.56 1025.36 1025.13 1024.89 1024.64 1024.41 1024.23 1024.13 1024.11 1024.18 1024.35 1024.61 1024.93 1025.29 1025.66 1026.03 1026.36 1026.66 1026.90
1024.31 1024.98 1025.54 1026.01 1026.42 1026.78 1027.11 1027.42 1027.69 1027.91 1028.08 1028.18 1028.20 1028.13 1027.99 1027.79 1027.54 1027.28 1027.01 1026.76 1026.52 1026.29 1026.07 1025.84 1025.59 1025.31 1025.00 1024.68 1024.36 1024.07 1023.84 1023.68 1023.61 1023.65 1023.79 1024.03 1024.33 1024.69 1025.07 1025.46 1025.83 1026.16 1026.45
1024.05 1024.78 1025.40 1025.94 1026.41 1026.83 1027.20 1027.54 1027.83 1028.08 1028.26 1028.36 1028.38 1028.32 1028.19 1028.00 1027.76 1027.51 1027.24 1026.98 1026.72 1026.46 1026.19 1025.90 1025.59 1025.25 1024.88 1024.50 1024.12 1023.78 1023.50 1023.29 1023.19 1023.19 1023.31 1023.52 1023.81 1024.15 1024.53 1024.92 1025.31 1025.66 1025.98
1023.71 1024.50 1025.19 1025.79 1026.32 1026.79 1027.21 1027.57 1027.88 1028.13 1028.30 1028.40 1028.41 1028.35 1028.22 1028.03 1027.81 1027.56 1027.30 1027.04 1026.77 1026.49 1026.20 1025.88 1025.52 1025.13 1024.72 1024.29 1023.88 1023.49 1023.17 1022.93 1022.80 1022.77 1022.85 1023.04 1023.31 1023.64 1024.00 1024.39 1024.77 1025.14 1025.47
1023.28 1024.13 1024.88 1025.55 1026.14 1026.66 1027.12 1027.50 1027.82 1028.06 1028.21 1028.29 1028.28 1028.21 1028.07 1027.88 1027.66 1027.42 1027.17 1026.92 1026.65 1026.37 1026.06 1025.72 1025.34 1024.92 1024.48 1024.02 1023.57 1023.16 1022.80 1022.53 1022.37 1022.31 1022.37 1022.52 1022.77 1023.08 1023.43 1023.81 1024.19 1024.57 1024.92
1022.78 1023.68 1024.49 1025.22 1025.87 1026.44 1026.93 1027.33 1027.65 1027.87 1028.00 1028.05 1028.02 1027.92 1027.76 1027.57 1027.35 1027.12 1026.88 1026.64 1026.38 1026.10 1025.79 1025.44 1025.04 1024.60 1024.13 1023.65 1023.17 1022.73 1022.35 1022.05 1021.85 1021.76 1021.79 1021.92 1022.14 1022.43 1022.77 1023.15 1023.54 1023.93 1024.29
1022.22 1023.16 1024.03 1024.82 1025.53 1026.14 1026.66 1027.07 1027.39 1027.60 1027.71 1027.73 1027.67 1027.54 1027.37 1027.17 1026.95 1026.73 1026.50 1026.26 1026.01 1025.73 1025.41 1025.05 1024.64 1024.18 1023.69 1023.18 1022.67 1022.20 1021.78 1021.45 1021.21 1021.09 1021.08 1021.19 1021.38 1021.66 1022.00 1022.39 1022.79 1023.21 1023.61
1021.64 1022.62 1023.53 1024.37 1025.13 1025.79 1026.33 1026.77 1027.08 1027.28 1027.38 1027.38 1027.29 1027.15 1026.97 1026.76 1026.54 1026.32 1026.09 1025.86 1025.60 1025.32 1024.99 1024.61 1024.18 1023.70 1023.17 1022.63 1022.09 1021.58 1021.12 1020.75 1020.47 1020.31 1020.27 1020.35 1020.53 1020.80 1021.15 1021.55 1021.98 1022.43 1022.88
1021.06 1022.07 1023.03 1023.92 1024.72 1025.41 1025.99 1026.44 1026.77 1026.97 1027.06 1027.04 1026.95 1026.80 1026.60 1026.39 1026.17 1025.94 1025.71 1025.47 1025.20 1024.90 1024.55 1024.15 1023.69 1023.17 1022.61 1022.03 1021.45 1020.90 1020.40 1019.99 1019.67 1019.47 1019.40 1019.45 1019.61 1019.88 1020.24 1020.67 1021.14 1021.64 1022.15
1020.53 1021.56 1022.56 1023.49 1024.33 1025.06 1025.66 1026.14 1026.47 1026.68 1026.77 1026.75 1026.65 1026.49 1026.30 1026.08 1025.85 1025.61 1025.37 1025.11 1024.82 1024.49 1024.11 1023.67 1023.17 1022.62 1022.02 1021.40 1020.78 1020.19 1019.65 1019.20 1018.85 1018.62 1018.52 1018.55 1018.70 1018.98 1019.35 1019.80 1020.32 1020.87 1021.43
1020.06 1021.13 1022.15 1023.11 1023.97 1024.73 1025.35 1025.84 1026.19 1026.40 1026.49 1026.48 1026.38 1026.22 1026.02 1025.79 1025.55 1025.30 1025.03 1024.74 1024.42 1024.05 1023.63 1023.15 1022.61 1022.02 1021.38 1020.73 1020.08 1019.46 1018.89 1018.41 1018.04 1017.78 1017.67 1017.68 1017.84 1018.12 1018.51 1018.99 1019.54 1020.13 1020.74
1019.68 1020.77 1021.81 1022.78 1023.66 1024.43 1025.06 1025.55 1025.90 1026.11 1026.20 1026.18 1026.08 1025.91 1025.70 1025.46 1025.20 1024.93 1024.63 1024.30 1023.94 1023.53 1023.06 1022.54 1021.96 1021.33 1020.67 1019.99 1019.32 1018.68 1018.11 1017.62 1017.24 1016.98 1016.86 1016.88 1017.04 1017.33 1017.74 1018.24 1018.82 1019.44 1020.10
1019.38 1020.47 1021.52 1022.49 1023.36 1024.12 1024.73 1025.21 1025.54 1025.74 1025.81 1025.78 1025.67 1025.49 1025.27 1025.01 1024.73 1024.42 1024.08 1023.72 1023.31 1022.85 1022.34 1021.78 1021.17 1020.51 1019.84 1019.15 1018.48 1017.85 1017.29 1016.82 1016.45 1016.21 1016.10 1016.14 1016.31 1016.61 1017.04 1017.56 1018.16 1018.81 1019.48
1019.14 1020.22 1021.25 1022.20 1023.04 1023.76 1024.34 1024.78 1025.07 1025.24 1025.28 1025.23 1025.09 1024.89 1024.65 1024.37 1024.06 1023.72 1023.35 1022.94 1022.49 1021.99 1021.44 1020.85 1020.21 1019.55 1018.87 1018.19 1017.54 1016.94 1016.41 1015.97 1015.64 1015.43 1015.36 1015.42 1015.62 1015.95 1016.39 1016.93 1017.54 1018.21 1018.90
1018.91 1019.97 1020.97 1021.88 1022.67 1023.33 1023.84 1024.22 1024.46 1024.58 1024.58 1024.49 1024.33 1024.11 1023.84 1023.53 1023.20 1022.83 1022.43 1021.98 1021.50 1020.96 1020.39 1019.77 1019.12 1018.46 1017.79 1017.13 1016.51 1015.95 1015.47 1015.08 1014.80 1014.64 1014.61 1014.72 1014.96 1015.31 1015.78 1016.34 1016.97 1017.65 1018.35
1018.68 1019.71 1020.65 1021.49 1022.21 1022.80 1023.24 1023.54 1023.72 1023.78 1023.73 1023.61 1023.41 1023.17 1022.88 1022.56 1022.20 1021.81 1021.39 1020.92 1020.41 1019.85 1019.26 1018.63 1017.97 1017.31 1016.66 1016.03 1015.45 1014.93 1014.50 1014.16 1013.94 1013.84 1013.87 1014.03 1014.31 1014.70 1015.20 1015.79 1016.44 1017.13 1017.85
1018.44 1019.41 1020.28 1021.05 1021.69 1022.19 1022.55 1022.77 1022.88 1022.88 1022.79 1022.63 1022.41 1022.16 1021.86 1021.53 1021.17 1020.77 1020.34 1019.86 1019.33 1018.76 1018.16 1017.52 1016.87 1016.21 1015.57 1014.97 1014.42 1013.95 1013.56 1013.28 1013.11 1013.07 1013.15 1013.36 1013.69 1014.13 1014.67 1015.28 1015.96 1016.68 1017.42
Thickness
5684 5683 5682 5680 5679 5677 5675 5674 5672 5671 5670 5669 5667 5666 5664 5663 5661 5659 5658 5657 5655 5654 5653 5652 5650 5649 5648 5646 5645 5644 5642 5640 5635 5631 5630 5630 5629 5628 5628 5627 5625 5624 5623
5682 5681 5679 5677 5676 5674 5673 5672 5671 5670 5668 5667 5666 5664 5662 5661 5659 5657 5656 5654 5653 5651 5650 5649 5648 5647 5645 5644 5642 5641 5639 5637 5634 5629 5626 5625 5624 5624 5623 5622 5621 5620 5618
5680 5678 5675 5674 5672 5671 5671 5670 5669 5668 5666 5665 5663 5661 5660 5659 5658 5656 5654 5652 5651 5649 5648 5647 5646 5644 5642 5640 5639 5637 5635 5634 5631 5627 5623 5621 5620 5619 5618 5616 5616 5614 5613
5676 5674 5672 5670 5669 5668 5668 5667 5666 5665 5663 5662 5661 5660 5658 5657 5655 5654 5652 5650 5648 5647 5646 5645 5643 5642 5640 5638 5637 5634 5632 5629 5626 5623 5620 5617 5615 5614 5613 5611 5609 5608 5608
5672 5670 5668 5668 5666 5665 5664 5663 5662 5661 5660 5659 5658 5657 5656 5654 5653 5651 5649 5647 5645 5643 5642 5641 5641 5640 5639 5637 5635 5631 5629 5625 5622 5619 5615 5613 5610 5609 5608 5607 5605 5603 5602
5668 5666 5665 5664 5662 5661 5660 5659 5658 5657 5656 5655 5654 5653 5652 5652 5651 5649 5647 5644 5642 5640 5638 5637 5637 5636 5635 5634 5632 5630 5628 5624 5619 5616 5612 5610 5608 5606 5604 5603 5600 5598 5596
5663 5662 5661 5660 5658 5656 5656 5654 5653 5652 5651 5650 5649 5648 5647 5647 5647 5646 5644 5641 5638 5636 5634 5633 5632 5632 5630 5629 5627 5626 5623 5621 5619 5616 5611 5608 5606 5604 5601 5598 5596 5594 5591
5657 5656 5656 5655 5653 5652 5651 5649 5648 5647 5646 5646 5645 5644 5643 5643 5642 5641 5639 5636 5634 5632 5630 5629 5627 5626 5625 5623 5622 5619 5617 5615 5614 5612 5610 5608 5605 5603 5600 5597 5593 5589 5587
5652 5651 5651 5650 5648 5647 5645 5644 5643 5642 5641 5641 5641 5640 5639 5639 5638 5637 5635 5632 5629 5628 5627 5626 5624 5622 5622 5619 5617 5613 5611 5610 5609 5607 5605 5603 5601 5599 5596 5591 5587 5584 5581
5647 5647 5646 5645 5644 5642 5641 5639 5639 5638 5637 5637 5636 5635 5635 5634 5634 5633 5631 5628 5624 5623 5622 5621 5621 5619 5618 5615 5611 5608 5605 5604 5602 5601 5598 5597 5595 5592 5590 5587 5584 5579 5575
5644 5642 5641 5640 5639 5638 5636 5635 5634 5633 5632 5632 5630 5630 5630 5630 5629 5628 5626 5624 5621 5619 5617 5616 5615 5615 5613 5611 5608 5605 5603 5600 5596 5594 5591 5589 5587 5585 5583 5580 5578 5575 5571
5637 5636 5634 5633 5633 5632 5630 5629 5628 5627 5626 5625 5625 5624 5624 5625 5624 5624 5623 5621 5619 5616 5614 5612 5611 5609 5607 5605 5602 5600 5598 5594 5590 5587 5584 5582 5579 5577 5576 5574 5571 5568 5566
5631 5629 5628 5627 5626 5625 5624 5623 5622 5621 5620 5619 5618 5618 5618 5619 5619 5619 5618 5617 5614 5611 5610 5608 5606 5604 5601 5598 5596 5594 5591 5587 5583 5580 5577 5575 5573 5571 5568 5565 5563 5560 5557
5625 5623 5622 5620 5619 5618 5617 5617 5616 5615 5614 5614 5613 5613 5612 5612 5612 5612 5611 5609 5608 5605 5603 5601 5599 5597 5594 5591 5588 5586 5583 5580 5577 5574 5571 5568 5565 5562 5560 5557 5554 5551 5547
5618 5617 5615 5614 5613 5611 5611 5611 5612 5612 5612 5611 5610 5609 5607 5606 5608 5607 5605 5603 5601 5599 5595 5592 5589 5586 5584 5581 5579 5577 5575 5572 5569 5566 5563 5559 5556 5554 5551 5548 5545 5541 5537
5611 5610 5609 5607 5606 5605 5604 5604 5605 5605 5606 5606 5606 5605 5604 5604 5603 5601 5600 5598 5596 5593 5588 5584 5581 5579 5577 5574 5571 5568 5566 5563 5561 5558 5554 5551 5548 5545 5542 5539 5536 5532 5529
5607 5606 5604 5602 5600 5599 5598 5597 5597 5597 5598 5598 5599 5598 5598 5597 5596 5594 5592 5590 5587 5584 5580 5577 5574 5571 5569 5566 5564 5561 5557 5554 5551 5549 5546 5543 5540 5537 5533 5530 5526 5523 5520
5601 5601 5599 5597 5595 5593 5592 5591 5590 5590 5589 5589 5590 5590 5590 5589 5588 5586 5583 5580 5575 5573 5571 5569 5566 5564 5561 5558 5555 5553 5549 5545 5542 5540 5537 5534 5531 5527 5524 5521 5518 5514 5511
5595 5593 5592 5590 5589 5587 5585 5584 5583 5582 5581 5581 5580 5580 5581 5580 5578 5576 5573 5570 5568 5565 5562 5560 5558 5555 5552 5550 5547 5545 5541 5538 5535 5532 5529 5526 5522 5518 5515 5512 5509 5506 5502
5589 5588 5586 5583 5581 5579 5577 5576 5575 5574 5573 5572 5572 5572 5570 5568 5566 5565 5563 5561 5559 5557 5555 5552 5549 5547 5544 5541 5538 5535 5532 5529 5527 5524 5521 5518 5514 5510 5507 5504 5501 5497 5494
5582 5580 5579 5576 5573 5572 5570 5569 5567 5566 5565 5564 5564 5564 5562 5560 5558 5556 5554 5553 5551 5549 5547 5544 5541 5538 5535 5532 5529 5526 5524 5521 5518 5515 5512 5508 5505 5502 5499 5496 5493 5489 5486
5575 5572 5570 5568 5566 5564 5562 5561 5559 5558 5556 5555 5554 5553 5553 5551 5549 5548 5546 5544 5542 5540 5538 5536 5533 5530 5527 5524 5520 5517 5514 5512 5508 5505 5502 5499 5496 5493 5489 5486 5483 5479 5476
5567 5564 5562 5559 5557 5556 5553 5551 5550 5549 5547 5546 5545 5543 5542 5541 5540 5539 5537 5535 5533 5531 5528 5526 5523 5520 5518 5515 5512 5509 5506 5503 5500 5496 5492 5489 5486 5483 5481 5477 5474 5470 5467
5560 5557 5554 5551 5548 5545 5543 5542 5540 5539 5538 5537 5536 5535 5534 5532 5531 5530 5528 5526 5523 5521 5519 5516 5514 5511 5509 5506 5503 5500 5497 5494 5491 5487 5484 5480 5477 5474 5472 5469 5466 5463 5459
5551 5549 5546 5543 5540 5538 5535 5533 5532 5531 5529 5528 5527 5526 5524 5523 5522 5521 5519 5516 5514 5512 5509 5507 5504 5501 5499 5497 5494 5491 5488 5484 5481 5478 5474 5471 5468 5465 5462 5459 5456 5453 5450
5542 5540 5538 5535 5533 5530 5528 5526 5524 5522 5521 5520 5519 5517 5516 5515 5513 5512 5509 5507 5504 5502 5500 5497 5495 5492 5490 5488 5485 5481 5478 5475 5471 5468 5465 5462 5459 5456 5453 5450 5447 5444 5441